Location: Góry Miechowskie
(50.3599°N, 20.1803°E)
Time: 22:13:34
(UTC+00:00)

Transit 2A Rocket - Pass Details

Date: 17 September 2024
Orbit: 582 x 908 km, 66.7° (Epoch: 09 October)

Event Time Altitude Azimuth Distance (km) Brightness Sun altitude
Rises 03:13:10 0° 314° (NW) 3,545 8.1 -11.0°
Reaches altitude 10° 03:16:32 10° 331° (NNW) 2,587 7.6 -10.5°
Maximum altitude 03:20:44 19° 16° (NNE) 1,977 7.5 -9.9°
Drops below altitude 10° 03:24:48 10° 60° (ENE) 2,492 9.1 -9.3°
Sets 03:27:58 0° 78° (ENE) 3,371 10.8 -8.8°
